Stations météo

réclame
Mon MeteoGroup
St. Mary's, Grande-Bretagne (3803): Température de l'air & dewpoint: 19.02.2018 09:00:00 - 25.02.2018 09:00:00 (GMT)St. Mary's, Grande-Bretagne (3803): Température de l'air -20cm: 19.02.2018 09:00:00 - 25.02.2018 09:00:00 (GMT)St. Mary's, Grande-Bretagne (3803): Vitesse du vent & gusts: 19.02.2018 09:00:00 - 25.02.2018 09:00:00 (GMT)St. Mary's, Grande-Bretagne (3803): Direction du vent: 19.02.2018 09:00:00 - 25.02.2018 09:00:00 (GMT)St. Mary's, Grande-Bretagne (3803): reduced air pressure: 19.02.2018 09:00:00 - 25.02.2018 09:00:00 (GMT)St. Mary's, Grande-Bretagne (3803): visibility: 19.02.2018 09:00:00 - 25.02.2018 09:00:00 (GMT)St. Mary's, Grande-Bretagne (3803): Quantités de précipitations: 19.02.2018 09:00:00 - 25.02.2018 09:00:00 (GMT)
Date & Time tt [°C] td [°C] tt -20cm [°C] ff [km/h] ff [knt] fx [km/h] fx [knt] dd ppp [hPa] vv [km] rr [mm]
25.02.2018 09:00:00 - - - - - - - - - - -
25.02.2018 08:00:00 6,9 1,3 - 41 22 55 30 ESE 1020,6 16 0,0
25.02.2018 07:00:00 6,7 0,7 - 41 22 54 29 ESE 1019,9 21 0,0
25.02.2018 06:00:00 6,6 -0,6 - 39 21 54 29 ESE 1019,8 22 0,0
25.02.2018 05:00:00 6,4 -0,1 - 39 21 50 27 ESE 1019,6 21 0,0
25.02.2018 04:00:00 6,4 0,8 - 35 19 54 29 ESE 1019,7 14 0,0
25.02.2018 03:00:00 6,4 1,2 - 41 22 57 31 ESE 1019,4 12 0,0
25.02.2018 02:00:00 6,7 2,1 - 42 23 57 31 ESE 1019,0 11 0,0
25.02.2018 01:00:00 6,8 2,3 - 44 24 57 31 ESE 1018,8 11 0,0
25.02.2018 00:00:00 6,8 2,2 - 46 25 59 32 ESE 1018,9 12 0,0
24.02.2018 23:00:00 6,7 2,5 - 48 26 63 34 E 1018,7 10 0,0
24.02.2018 22:00:00 6,9 3,0 - 50 27 63 34 E 1018,4 13 0,0
24.02.2018 21:00:00 6,8 2,5 - 48 26 61 33 E 1018,3 13 0,0
24.02.2018 20:00:00 6,6 2,5 - 46 25 63 34 E 1017,9 11 0,0
24.02.2018 19:00:00 6,4 2,6 - 46 25 61 33 E 1018,0 13 0,0
24.02.2018 18:00:00 6,0 2,5 - 42 23 57 31 E 1017,4 13 0,0
24.02.2018 17:00:00 6,3 3,1 - 39 21 55 30 E 1016,8 10 0,0
24.02.2018 16:00:00 6,1 3,2 - 37 20 54 29 E 1016,8 8 0,0
24.02.2018 15:00:00 6,0 3,2 - 37 20 50 27 E 1017,0 8 0,0
24.02.2018 14:00:00 6,4 3,6 - 42 23 54 29 E 1017,0 8 0,0
24.02.2018 13:00:00 6,6 3,2 - 37 20 50 27 E 1016,9 10 0,0
24.02.2018 12:00:00 6,9 2,5 - 34 18 - - ESE 1017,2 10 0,0
24.02.2018 11:00:00 6,4 0,5 - 35 19 46 25 E 1017,0 10 0,0
24.02.2018 10:00:00 6,2 1,4 - 31 17 - - ESE 1016,8 10 0,0
24.02.2018 09:00:00 6,0 1,4 6,7 29 16 - - ESE 1016,6 10 0,0
24.02.2018 08:00:00 5,8 0,8 - 31 17 - - ESE 1016,3 10 0,0
24.02.2018 07:00:00 5,8 0,6 - 31 17 46 25 SE 1015,5 19 0,0
24.02.2018 06:00:00 5,5 1,2 - 31 17 48 26 SE 1014,9 11 0,0
24.02.2018 05:00:00 5,4 0,7 - 37 20 48 26 SE 1014,2 15 0,0
24.02.2018 04:00:00 5,5 0,4 - 37 20 48 26 SE 1014,0 17 0,0
24.02.2018 03:00:00 6,0 1,0 - 34 18 48 26 SE 1013,9 17 0,0
24.02.2018 02:00:00 5,9 1,1 - 37 20 52 28 SE 1013,9 16 0,0
24.02.2018 01:00:00 5,5 -0,1 - 37 20 50 27 SE 1014,0 16 0,0
24.02.2018 00:00:00 5,5 0,2 - 39 21 55 30 SE 1014,2 22 0,0
23.02.2018 23:00:00 5,6 0,8 - 37 20 57 31 ESE 1014,1 19 0,0
23.02.2018 22:00:00 5,4 0,0 - 41 22 59 32 ESE 1014,3 25 0,0
23.02.2018 21:00:00 5,6 0,3 - 41 22 55 30 ESE 1014,1 17 0,0
23.02.2018 20:00:00 5,7 0,0 - 41 22 55 30 ESE 1014,3 28 0,0
23.02.2018 19:00:00 5,7 0,4 - 44 24 57 31 SE 1014,4 18 0,0
23.02.2018 18:00:00 5,6 0,5 - 42 23 59 32 ESE 1014,0 15 0,0
23.02.2018 17:00:00 6,1 0,3 - 44 24 55 30 ESE 1014,0 10 0,0
23.02.2018 16:00:00 6,5 1,3 - 39 21 52 28 ESE 1014,2 10 0,0
23.02.2018 15:00:00 6,4 0,5 - 41 22 55 30 ESE 1014,7 10 0,0
23.02.2018 14:00:00 6,8 1,3 - 37 20 52 28 SE 1015,2 10 0,0
23.02.2018 13:00:00 6,9 1,4 - 39 21 54 29 ESE 1015,8 10 0,0
23.02.2018 12:00:00 7,2 1,6 - 39 21 54 29 ESE 1016,2 10 0,0
23.02.2018 11:00:00 6,6 0,4 - 39 21 54 29 ESE 1016,7 10 0,0
23.02.2018 10:00:00 6,3 0,9 - 35 19 50 27 SE 1017,0 10 0,0
23.02.2018 09:00:00 6,0 0,5 7,2 31 17 46 25 SE 1017,3 10 0,0
23.02.2018 08:00:00 5,6 0,1 - 31 17 50 27 SE 1017,2 10 0,0
23.02.2018 07:00:00 5,7 0,8 - 37 20 50 27 SE 1016,9 17 0,0
23.02.2018 06:00:00 5,9 1,0 - 35 19 50 27 ESE 1017,0 16 0,0
23.02.2018 05:00:00 5,7 0,0 - 35 19 50 27 SE 1017,2 19 0,0
23.02.2018 04:00:00 6,2 0,8 - 34 18 46 25 ESE 1017,3 21 0,0
23.02.2018 03:00:00 6,4 0,1 - 34 18 46 25 ESE 1017,7 21 0,0
23.02.2018 02:00:00 6,6 0,7 - 35 19 - - SE 1018,2 30 0,0
23.02.2018 01:00:00 6,4 0,4 - 34 18 - - ESE 1018,6 30 0,0
23.02.2018 00:00:00 6,2 0,5 - 31 17 48 26 ESE 1019,0 27 0,0
22.02.2018 23:00:00 6,4 0,7 - 31 17 - - ESE 1019,2 20 0,0
22.02.2018 22:00:00 6,2 0,1 - 31 17 - - ESE 1019,5 19 0,0
22.02.2018 21:00:00 6,1 0,8 - 35 19 46 25 E 1019,5 22 0,0
22.02.2018 20:00:00 6,1 1,6 - 37 20 48 26 E 1019,8 19 0,0
22.02.2018 19:00:00 6,2 1,7 - 37 20 46 25 ESE 1019,8 26 0,0
22.02.2018 18:00:00 6,6 2,2 - 35 19 46 25 E 1019,6 25 0,0
22.02.2018 17:00:00 7,3 2,8 - 34 18 - - ESE 1019,6 10 0,0
22.02.2018 16:00:00 7,8 3,5 - 34 18 - - ESE 1019,8 10 0,0
22.02.2018 15:00:00 8,2 3,9 - 34 18 - - E 1020,0 10 0,0
22.02.2018 14:00:00 8,2 4,4 - 31 17 - - E 1020,4 10 0,0
22.02.2018 13:00:00 8,6 4,2 - 34 18 - - E 1021,0 10 0,0
22.02.2018 12:00:00 8,2 4,1 - 28 15 - - E 1021,5 10 0,0
22.02.2018 11:00:00 7,6 4,1 - 26 14 - - E 1021,7 10 0,0
22.02.2018 10:00:00 7,3 4,6 - 26 14 - - E 1022,0 9 0,0
22.02.2018 09:00:00 6,8 4,7 7,7 24 13 - - E 1021,9 10 0,0
22.02.2018 08:00:00 7,1 3,6 - 21 11 - - E 1021,8 10 0,0
22.02.2018 07:00:00 6,9 3,7 - 24 13 - - E 1021,9 16 0,0
22.02.2018 06:00:00 7,1 3,5 - 21 11 - - E 1022,0 15 0,0
22.02.2018 05:00:00 7,0 4,1 - 21 11 - - E 1022,1 14 0,0
22.02.2018 04:00:00 7,2 3,5 - 22 12 - - E 1022,4 13 0,0
22.02.2018 03:00:00 6,7 1,7 - 18 10 - - ESE 1022,7 14 0,0
22.02.2018 02:00:00 7,0 2,4 - 22 12 - - E 1023,4 12 0,0
22.02.2018 01:00:00 6,9 1,8 - 24 13 - - ESE 1023,7 14 0,0
22.02.2018 00:00:00 6,8 1,5 - 26 14 - - ESE 1024,3 17 0,0
21.02.2018 23:00:00 6,3 1,4 - 24 13 - - E 1024,6 22 0,0
21.02.2018 22:00:00 6,1 1,8 - 22 12 - - ESE 1024,9 20 0,0
21.02.2018 21:00:00 6,3 1,7 - 24 13 - - ESE 1025,0 20 0,0
21.02.2018 20:00:00 6,2 1,8 - 26 14 - - ESE 1025,1 29 0,0
21.02.2018 19:00:00 6,4 1,5 - 26 14 - - E 1025,3 35 0,0
21.02.2018 18:00:00 6,7 1,2 - 26 14 - - E 1025,2 40 0,0
21.02.2018 17:00:00 7,6 2,7 - 28 15 - - ESE 1025,1 10 0,0
21.02.2018 16:00:00 8,1 3,0 - 28 15 - - ESE 1025,1 10 0,0
21.02.2018 15:00:00 8,4 3,9 - 26 14 - - E 1025,4 10 0,0
21.02.2018 14:00:00 8,9 4,6 - 24 13 - - E 1025,8 10 0,0
21.02.2018 13:00:00 8,8 4,9 - 21 11 - - E 1026,2 10 0,0
21.02.2018 12:00:00 8,9 4,5 - 15 8 - - E 1026,7 10 0,0
21.02.2018 11:00:00 8,3 4,2 - 16 9 - - E 1027,0 10 0,0
21.02.2018 10:00:00 8,3 4,0 - 21 11 - - E 1027,3 10 0,0
21.02.2018 09:00:00 8,0 4,2 8,0 21 11 - - ENE 1027,2 10 0,0
21.02.2018 08:00:00 7,1 4,1 - 21 11 - - NE 1027,0 24 0,0
21.02.2018 07:00:00 6,8 4,4 - 18 10 - - NE 1026,9 17 0,0
21.02.2018 06:00:00 7,0 4,1 - 21 11 - - NNE 1027,2 24 0,0
21.02.2018 05:00:00 7,3 4,4 - 22 12 - - NE 1027,3 18 0,0
21.02.2018 04:00:00 7,0 4,4 - 22 12 - - NNE 1027,6 16 0,0
21.02.2018 03:00:00 7,3 4,1 - 24 13 - - NNE 1027,7 19 0,0
21.02.2018 02:00:00 7,4 3,8 - 28 15 - - NNE 1028,0 21 0,0
21.02.2018 01:00:00 7,8 3,9 - 31 17 48 26 NNE 1028,2 23 0,0
21.02.2018 00:00:00 7,9 4,1 - 34 18 48 26 NNE 1028,5 23 0,0
20.02.2018 23:00:00 7,8 3,6 - 31 17 48 26 NNE 1028,6 19 0,0
20.02.2018 22:00:00 7,8 3,7 - 37 20 50 27 NNE 1028,4 20 0,0
20.02.2018 21:00:00 8,0 3,8 - 31 17 52 28 NNE 1028,6 26 0,0
20.02.2018 20:00:00 7,9 3,8 - 31 17 52 28 N 1028,6 18 0,0
20.02.2018 19:00:00 7,8 3,8 - 34 18 46 25 N 1028,3 20 0,0
20.02.2018 18:00:00 7,6 4,0 - 28 15 - - N 1028,2 18 0,0
20.02.2018 17:00:00 8,0 3,9 - 28 15 - - N 1028,0 10 0,0
20.02.2018 16:00:00 8,8 3,7 - 28 15 - - N 1027,8 10 0,0
20.02.2018 15:00:00 8,9 4,0 - 26 14 - - N 1027,5 10 0,0
20.02.2018 14:00:00 9,4 4,4 - 31 17 48 26 N 1028,0 10 0,0
20.02.2018 13:00:00 9,3 4,3 - 31 17 48 26 N 1028,5 10 0,0
20.02.2018 12:00:00 9,5 4,7 - 31 17 46 25 N 1028,6 10 0,0
20.02.2018 11:00:00 9,3 4,9 - 26 14 48 26 N 1028,3 10 0,0
20.02.2018 10:00:00 9,0 4,7 - 34 18 50 27 N 1027,8 0,1 0,0
20.02.2018 09:00:00 8,7 5,2 8,9 29 16 - - N 1027,5 10 0,0
20.02.2018 08:00:00 8,2 5,3 - 24 13 48 26 N 1026,8 10 0,0
20.02.2018 07:00:00 8,0 4,9 - 31 17 48 26 N 1026,0 17 0,0
20.02.2018 06:00:00 8,2 4,7 - 34 18 52 28 N 1025,8 18 0,0
20.02.2018 05:00:00 8,4 6,0 - 31 17 46 25 N 1025,2 15 0,0
20.02.2018 04:00:00 8,8 7,0 - 28 15 - - N 1025,0 13 0,0
20.02.2018 03:00:00 8,9 7,1 - 28 15 - - N 1024,5 14 0,0
20.02.2018 02:00:00 9,4 7,5 - 28 15 - - N 1023,9 18 0,0
20.02.2018 01:00:00 9,4 7,6 - 28 15 - - NNW 1023,9 18 0,0
20.02.2018 00:00:00 9,5 8,5 - 31 17 - - NNW 1023,6 22 0,0
19.02.2018 23:00:00 9,9 9,8 - 22 12 - - NW 1023,2 2,5 0,0
19.02.2018 22:00:00 9,8 9,6 - 21 11 - - NW 1022,9 9 0,0
19.02.2018 21:00:00 9,8 9,7 - 24 13 - - NW 1022,9 1,7 0,0
19.02.2018 20:00:00 9,9 9,5 - 22 12 - - NW 1022,8 5 0,0
19.02.2018 19:00:00 9,7 9,2 - 18 10 - - WNW 1022,5 8 0,0
19.02.2018 18:00:00 9,7 8,9 - 18 10 - - WNW 1022,2 11 0,0
19.02.2018 17:00:00 10,4 9,4 - 21 11 - - NW 1022,1 10 0,0
19.02.2018 16:00:00 10,3 9,6 - 26 14 - - WNW 1022,0 10 0,0
19.02.2018 15:00:00 10,9 9,9 - 24 13 - - NW 1021,8 9 0,0
19.02.2018 14:00:00 10,5 9,8 - 21 11 - - NW 1022,0 8 0,0
19.02.2018 13:00:00 10,6 9,9 - 22 12 - - WNW 1021,9 10 0,0
19.02.2018 12:00:00 10,5 9,9 - 18 10 - - WNW 1022,1 8 0,0
19.02.2018 11:00:00 10,4 9,4 - 16 9 - - WNW 1022,0 10 0,0
19.02.2018 10:00:00 9,8 8,8 - 16 9 - - NW 1021,7 10 0,0
19.02.2018 09:00:00 9,5 8,8 8,7 16 9 - - NW 1021,7 10 0,0

tt = Température de l'air
td = dewpoint
tt -20cm = Température de l'air -20cm
ff = Vitesse du vent
fx = gusts
dd = Direction du vent
ppp = reduced air pressure
vv = visibility
rr = Quantités de précipitations

stations d'obs. à proximité